Wind_Speed
19 18 17 16 16 17 17 18 19 22 27 30 32 34 35 36 37 37 37 39 41 41 42 42 42 42 42 43 43 42 41 40 38 38 37 37 36 35 35 34 34 34 34 34 34 33 32 31 29 27 25 24 23 23 24 23 22 22 21 20 19 19 20
16 16 16 15 15 17 18 18 20 23 26 29 32 34 35 37 38 39 38 40 42 42 43 43 42 42 43 43 42 41 40 39 38 37 36 36 35 35 35 35 34 34 35 36 36 34 32 31 30 28 27 26 24 24 24 24 23 22 22 22 21 20 20
15 15 15 16 17 18 18 17 19 24 27 29 32 34 36 38 40 41 40 40 41 41 42 43 43 43 43 42 41 40 40 39 38 38 37 37 36 36 35 35 35 34 34 35 35 34 33 32 31 30 28 27 26 24 24 24 24 23 22 22 22 22 21
18 18 17 19 19 17 17 16 18 23 28 31 34 36 38 40 41 42 42 42 42 41 41 42 43 43 43 42 41 40 40 39 39 39 38 38 37 36 35 34 35 34 34 34 34 34 33 33 32 31 30 29 28 26 25 25 25 25 24 23 23 24 23
20 19 17 17 16 14 14 15 18 23 28 32 35 36 37 39 39 39 41 42 43 43 43 43 42 42 41 41 41 40 40 40 39 39 39 38 37 35 35 35 35 35 35 34 34 33 33 32 32 32 31 31 30 28 27 26 26 26 25 25 24 24 25
18 17 16 15 15 15 16 17 20 26 30 31 34 35 35 36 37 38 39 39 41 42 42 42 41 41 41 41 41 39 39 39 39 39 38 37 36 35 35 36 36 36 35 34 34 34 33 32 32 32 32 32 32 31 30 28 28 27 27 27 26 26 26
17 17 17 16 16 16 17 17 19 26 30 30 31 32 33 34 36 37 37 38 39 39 39 39 40 41 40 40 40 39 38 39 39 38 38 36 35 36 36 35 35 35 35 34 35 34 34 33 33 33 33 33 33 33 32 31 29 29 28 28 28 27 27
19 18 18 18 17 17 17 16 18 23 27 28 28 30 32 34 34 35 36 37 38 38 38 40 41 40 40 39 39 40 39 39 39 39 38 36 35 36 36 35 35 35 34 34 35 35 35 35 35 34 34 34 35 34 34 33 31 30 30 30 30 29 29
19 19 19 19 18 17 16 16 17 21 24 26 28 30 32 33 33 34 36 37 37 37 39 40 41 41 40 39 39 40 40 39 39 39 38 37 37 37 37 36 36 35 35 35 35 34 35 35 35 35 34 34 35 35 35 35 33 32 31 31 31 31 31
17 18 19 18 17 16 15 15 15 16 18 22 26 28 31 32 33 34 35 36 36 38 40 40 40 40 39 38 39 39 38 38 38 38 38 38 38 38 37 37 35 35 35 35 34 33 34 35 35 34 34 34 34 35 36 36 36 35 34 33 33 32 32
15 17 17 17 16 15 14 14 13 14 15 19 24 27 30 32 32 34 35 36 37 38 39 39 38 38 38 38 38 37 37 37 37 37 38 38 38 38 37 36 35 34 34 34 33 33 34 34 34 34 34 35 35 36 36 37 37 37 36 35 34 34 34
14 15 15 17 16 15 16 15 15 15 15 19 24 27 29 31 32 33 34 36 38 38 38 38 38 38 39 39 37 36 37 37 37 37 38 38 37 37 36 36 35 35 34 34 34 33 33 33 34 34 35 36 36 37 37 38 37 37 37 36 35 35 35
15 15 15 15 15 15 16 15 16 17 17 20 25 28 29 31 32 33 34 35 37 37 37 38 38 38 39 38 37 37 38 38 38 38 38 38 37 37 36 36 35 35 35 34 34 34 33 33 33 34 35 36 36 37 38 37 37 37 37 36 36 36 36
15 15 14 14 15 16 17 17 17 17 17 19 24 27 28 30 32 33 34 35 36 36 36 37 37 37 37 36 36 37 39 40 40 40 39 38 37 37 36 36 36 36 35 34 34 34 34 34 34 34 35 35 36 36 36 35 35 36 36 37 37 36 36
15 15 15 15 16 17 17 17 17 17 17 19 22 25 26 28 30 32 33 34 35 36 36 36 37 36 36 35 37 38 39 39 38 38 37 36 36 37 37 37 36 36 36 36 35 35 35 35 34 34 35 35 36 36 35 35 36 37 38 38 38 37 37
15 15 16 17 18 18 18 18 18 18 18 17 20 24 26 27 30 32 32 33 34 35 36 36 36 36 35 36 37 37 36 35 35 35 35 36 37 38 37 37 36 36 36 37 37 36 36 35 34 34 35 36 36 36 35 36 38 40 41 41 40 38 37
15 15 16 17 18 18 17 16 15 15 16 17 20 25 28 29 30 31 31 32 33 34 35 35 35 35 35 36 36 36 35 35 35 35 36 37 38 37 37 36 36 36 36 36 37 36 36 35 35 35 36 36 36 36 36 38 41 42 42 42 42 40 38
15 15 16 17 18 17 16 15 15 16 16 18 21 25 28 29 29 30 31 32 33 33 34 35 35 35 36 36 36 36 36 36 36 36 37 38 38 37 37 36 36 36 36 36 36 36 35 35 35 36 36 35 36 36 37 39 42 43 43 43 43 42 40
15 16 16 17 17 16 16 15 15 17 18 20 24 29 31 31 31 31 33 32 32 32 33 34 35 35 36 36 37 37 37 37 36 36 37 37 37 37 36 35 36 36 36 35 35 34 34 35 35 36 36 36 36 36 38 40 42 42 43 43 43 43 42
14 15 15 16 15 15 16 15 14 16 19 24 28 31 32 32 31 30 30 30 31 32 33 34 34 34 35 36 37 37 37 37 36 36 37 37 37 36 35 36 36 37 36 34 33 34 34 35 35 36 36 36 37 37 38 40 41 41 42 43 43 42 41
12 14 13 14 14 13 13 13 12 13 18 24 27 27 28 28 27 27 28 30 32 32 33 34 34 35 35 36 36 37 37 36 36 36 37 37 36 36 36 37 37 37 36 35 35 35 36 35 35 36 36 37 38 37 38 40 41 40 41 42 42 41 40
9 12 13 13 14 14 13 15 16 18 21 24 26 26 27 27 28 27 28 30 31 31 33 34 33 34 35 35 35 36 36 36 36 36 36 36 36 36 36 37 37 37 36 35 35 36 35 35 35 36 36 37 37 37 38 41 41 40 40 40 39 38 38
3 6 8 9 10 12 14 17 20 22 24 25 27 29 29 29 30 29 27 28 29 30 31 31 32 33 34 34 35 36 36 37 37 37 37 36 36 36 37 37 37 37 36 35 35 35 35 36 36 36 35 36 36 37 39 41 40 38 39 38 35 35 36
7 6 6 6 8 9 11 14 15 17 21 23 24 27 28 28 29 28 26 27 28 29 29 29 31 32 33 34 35 36 37 38 38 38 37 36 36 37 38 38 37 37 37 36 36 36 37 36 35 35 34 35 36 38 39 40 38 37 37 36 34 34 36
10 10 9 9 11 12 14 17 18 16 17 17 17 19 22 26 28 26 25 26 27 28 28 29 32 33 33 35 36 37 38 38 39 39 38 37 37 38 38 38 38 37 37 37 37 37 37 35 34 34 34 35 36 37 38 39 37 36 37 35 34 34 35
11 12 12 12 15 18 19 21 21 17 15 13 14 18 23 26 26 25 24 25 25 26 28 31 33 34 35 36 37 38 38 38 39 39 38 37 38 39 39 39 37 36 36 36 36 35 34 33 33 33 34 34 34 35 37 38 37 36 36 35 34 34 34
11 14 15 15 18 22 23 23 22 20 17 15 13 14 20 25 25 23 23 23 24 27 31 33 33 33 34 36 37 37 38 38 39 40 40 40 39 39 38 37 36 35 35 35 34 34 33 32 32 32 33 32 32 34 36 38 38 37 36 35 35 34 33
12 13 16 19 21 22 21 20 21 21 19 20 20 16 14 18 19 18 19 21 23 27 29 28 30 33 34 35 36 37 38 38 38 39 39 39 38 36 36 36 35 35 35 34 32 32 31 31 30 30 30 30 31 32 35 36 37 36 36 36 36 35 34
11 10 12 15 17 19 20 18 18 19 20 22 23 21 16 12 11 8 9 11 14 18 20 20 25 29 31 33 35 36 37 38 38 38 37 37 37 36 35 35 34 33 33 32 31 30 30 29 29 28 28 28 29 31 33 34 35 35 35 35 35 35 35
10 9 10 12 14 18 20 18 16 18 22 25 25 23 19 16 14 10 6 3 2 7 12 16 20 23 27 30 32 34 35 36 36 36 36 36 36 35 34 33 32 32 31 31 30 29 28 27 27 27 26 26 27 29 31 32 32 32 33 33 33 33 34
10 9 10 11 14 18 19 18 18 20 22 24 25 23 20 18 16 14 12 9 4 2 6 11 17 21 25 29 30 31 33 33 34 35 35 35 34 34 33 32 31 29 29 29 29 28 27 26 26 26 25 25 25 27 28 28 28 29 29 31 31 32 32
9 9 10 11 13 17 19 19 19 19 19 21 22 20 19 18 17 15 14 12 9 5 5 8 14 20 24 26 28 30 31 30 31 32 33 33 33 33 33 33 31 30 29 29 29 28 27 26 25 24 24 24 25 25 25 24 24 25 26 27 28 29 30
8 8 9 10 12 16 17 16 14 14 15 16 18 18 17 16 16 14 13 14 13 9 7 8 12 18 21 24 26 27 29 29 29 29 30 31 31 30 30 31 31 30 29 28 27 26 25 24 23 22 22 22 23 22 21 21 21 21 21 22 23 24 25
7 7 9 12 14 15 15 13 12 12 12 12 13 14 14 13 13 14 13 14 14 12 9 7 10 15 19 21 23 26 28 29 29 28 28 27 26 25 25 25 26 27 27 27 27 25 24 24 23 24 24 24 23 21 19 18 19 19 19 19 20 20 20
9 9 9 10 12 14 14 13 12 12 12 12 12 13 14 14 13 13 14 14 15 14 11 8 8 12 15 17 20 23 25 26 27 27 26 24 22 20 18 18 21 22 22 23 25 25 25 25 26 27 27 27 26 23 21 19 20 19 18 17 17 17 17
9 10 10 10 11 13 14 14 13 13 13 14 14 15 15 15 14 14 14 15 15 15 12 9 7 9 11 13 16 19 21 22 24 25 26 25 24 21 17 13 14 17 18 20 22 24 25 25 26 27 28 27 26 26 24 24 23 21 19 18 17 16 16
11 11 11 11 10 11 13 14 14 14 14 13 13 13 12 12 12 12 13 14 15 15 13 10 7 7 9 11 14 17 19 21 23 24 25 25 25 24 20 15 11 11 13 16 19 20 22 23 23 25 25 25 25 25 23 22 22 22 21 20 20 18 17
14 12 11 9 9 9 11 11 10 10 9 9 9 10 10 10 10 10 11 12 13 13 12 9 6 6 8 10 13 16 19 22 23 24 24 24 24 23 22 19 16 12 8 8 12 15 17 18 19 20 22 24 25 23 20 20 22 24 23 21 20 19 18
Wind_Direction
195 196 195 195 195 196 197 193 192 191 189 189 189 189 189 190 190 190 191 193 194 195 196 196 197 198 199 201 203 204 205 206 206 207 209 210 212 214 215 216 217 219 218 218 220 221 220 220 221 225 228 230 232 230 227 224 224 226 227 228 230 232 233
198 199 195 194 196 198 197 192 191 191 190 189 189 188 188 189 190 190 191 192 194 195 195 196 197 198 199 201 202 204 205 206 207 208 209 211 213 214 216 217 218 220 220 220 221 222 221 220 220 225 229 231 232 231 228 226 226 228 229 228 229 232 235
201 201 196 196 198 196 194 190 190 191 191 190 188 188 189 189 190 191 191 192 193 195 195 196 197 198 200 201 202 204 205 206 207 207 209 211 212 213 215 217 219 221 221 222 222 222 223 222 221 224 229 232 233 232 231 229 229 231 231 232 231 232 235
199 200 197 200 200 195 191 188 188 190 192 192 191 190 190 190 191 191 192 192 193 194 195 196 198 199 200 200 202 204 205 206 207 208 210 211 212 213 213 216 218 220 222 223 223 223 224 224 223 224 228 232 234 233 232 232 232 233 234 235 235 236 237
198 198 198 200 197 193 191 190 190 190 192 193 192 191 191 191 191 191 193 194 194 195 197 197 198 199 200 201 202 204 205 206 207 209 210 212 212 212 212 214 216 218 221 223 223 224 225 225 224 225 227 231 234 234 234 233 233 234 236 237 238 239 239
198 196 196 196 194 193 193 192 192 191 191 192 191 191 190 189 190 191 193 194 195 197 197 198 199 199 200 201 202 204 205 207 208 209 210 211 211 211 213 215 215 217 220 221 223 225 225 226 226 226 227 230 233 233 234 234 234 235 236 237 239 240 241
195 194 195 195 192 193 193 191 191 191 191 190 189 189 188 189 190 192 193 194 195 196 196 198 199 200 201 201 202 204 205 206 208 209 211 211 212 213 214 215 215 217 219 220 223 224 225 227 228 228 229 230 232 233 233 234 235 235 236 237 239 241 242
194 193 194 195 193 192 191 190 189 188 187 186 186 187 188 189 191 191 192 194 195 195 196 198 200 201 202 202 202 204 205 206 208 209 210 211 212 214 215 215 216 217 217 219 222 224 225 227 229 229 229 229 231 232 233 234 235 235 235 236 238 240 241
193 192 194 194 192 191 188 189 187 182 181 183 185 187 188 189 190 191 192 193 194 195 197 199 200 201 202 202 203 205 206 206 207 208 209 210 212 214 215 216 217 217 218 220 222 223 226 228 229 230 229 229 229 231 232 233 235 235 235 236 237 239 240
193 192 194 193 191 190 187 185 182 179 180 182 184 186 188 189 190 191 192 193 193 196 198 199 200 201 201 202 204 205 205 206 207 208 209 210 212 214 216 217 217 217 219 221 222 224 226 228 229 230 230 229 229 229 231 232 233 234 235 236 237 238 239
191 192 193 190 188 184 181 178 178 181 183 183 184 185 187 189 190 191 192 193 194 196 198 199 199 200 200 202 204 204 205 206 207 208 208 210 212 214 216 217 218 218 220 221 222 224 226 228 229 229 229 229 229 229 230 231 232 232 234 236 237 238 239
190 192 191 188 184 179 178 179 182 184 184 185 184 185 187 189 190 191 192 194 195 197 197 197 198 199 200 202 202 203 204 206 207 208 209 210 212 214 216 217 217 218 219 221 222 224 225 226 227 228 228 230 231 230 231 231 231 231 233 235 236 238 239
185 188 187 185 180 177 178 179 183 185 185 186 186 186 187 188 190 191 192 194 196 196 196 196 198 199 200 201 201 202 204 205 207 209 210 211 212 214 216 216 217 218 219 220 221 222 224 225 226 228 229 230 231 231 232 231 231 231 233 234 235 237 238
182 183 182 179 177 177 179 181 183 184 185 186 186 186 187 189 190 192 193 194 195 195 196 196 197 198 200 200 201 203 205 206 208 209 210 211 212 214 216 217 217 218 219 220 221 222 224 225 227 228 229 230 231 232 232 231 232 233 233 234 235 236 237
181 180 175 176 178 179 181 182 182 183 185 185 185 185 186 188 191 192 193 195 194 194 195 195 195 197 198 200 203 205 207 207 208 209 209 210 212 214 215 217 218 218 219 220 220 222 223 225 227 229 230 231 232 232 232 232 233 235 235 236 235 235 236
181 179 177 178 180 181 185 185 184 183 183 182 183 185 186 189 191 192 193 193 193 194 194 194 194 196 197 200 204 206 207 207 208 208 209 210 212 214 215 216 217 218 219 220 221 222 223 224 226 227 230 232 233 233 233 233 235 237 237 238 237 236 236
180 178 179 180 180 183 185 184 182 180 180 183 186 186 188 190 191 191 192 192 192 193 192 192 193 195 198 201 204 205 206 207 208 208 210 211 213 214 215 216 217 219 220 221 221 222 222 223 224 226 229 231 232 233 233 234 236 238 239 240 239 238 236
180 179 180 182 183 185 183 179 177 178 182 187 188 188 191 191 190 191 193 193 192 191 190 191 193 195 198 201 203 204 205 206 207 208 210 212 213 214 215 216 217 219 220 221 222 222 222 223 224 226 228 230 232 233 233 235 237 238 239 240 240 239 238
180 180 181 182 183 183 180 178 179 181 184 186 187 191 193 192 190 193 194 192 189 189 189 191 194 196 199 202 202 203 204 205 206 207 209 212 213 214 215 215 217 219 220 221 222 222 223 224 225 227 228 229 231 233 234 237 239 239 240 241 241 241 239
182 182 181 183 185 184 182 181 182 182 185 188 190 192 193 193 195 196 193 190 189 189 189 191 194 197 199 202 203 203 204 204 205 207 209 211 212 213 213 215 217 219 220 222 222 223 224 224 225 227 228 229 231 233 236 238 240 240 240 241 242 241 240
184 180 179 179 180 182 181 179 177 178 185 189 190 190 191 193 195 193 192 191 190 190 191 192 195 197 200 202 203 203 203 203 205 207 209 211 211 212 213 214 217 218 219 220 221 223 224 224 225 227 229 230 232 234 237 239 241 241 242 243 243 242 241
190 184 181 179 180 182 180 178 178 181 184 186 185 186 189 190 190 190 191 192 192 192 193 194 196 198 200 202 203 203 203 203 204 206 208 209 209 211 213 214 216 217 217 219 221 223 225 225 226 227 228 230 232 234 238 241 242 242 243 244 244 243 242
155 166 167 168 169 170 171 176 180 179 179 179 182 187 189 188 188 188 189 191 193 194 194 196 198 200 201 202 203 204 204 204 204 206 207 208 208 210 213 215 216 217 217 217 219 222 224 225 226 227 228 230 232 234 238 241 242 243 244 245 244 242 242
81 90 106 123 128 132 143 154 164 171 175 178 184 188 188 185 184 185 187 190 194 195 196 198 201 201 202 203 204 205 205 205 206 206 207 207 207 210 213 215 216 217 216 217 218 221 223 224 226 228 228 230 231 234 237 241 243 243 244 245 244 242 242
78 81 80 89 105 117 127 135 140 149 159 166 176 182 183 184 184 184 187 191 193 195 198 201 203 203 202 203 205 206 206 206 207 207 207 207 208 211 213 215 216 217 217 217 219 221 223 223 225 227 228 230 232 234 238 241 243 244 244 244 243 242 243
72 81 80 80 91 100 108 115 118 119 124 138 161 177 181 181 182 185 191 193 194 198 203 205 205 204 204 205 206 207 207 207 207 208 209 209 210 213 214 215 216 216 216 217 219 221 223 223 224 226 228 230 231 233 237 240 242 243 244 244 243 243 243
58 71 78 81 86 92 95 96 96 96 93 97 118 157 177 180 181 185 190 191 195 203 209 209 207 205 205 205 205 207 208 208 208 209 210 211 212 213 215 216 216 215 215 216 217 219 221 222 223 226 228 230 230 232 235 238 240 242 242 243 243 243 242
44 56 70 76 79 85 89 88 87 86 81 78 83 100 143 168 175 183 189 192 201 209 212 211 209 207 206 204 204 207 208 209 210 210 211 212 213 213 214 215 216 215 215 215 216 217 219 220 222 224 227 229 230 231 235 237 239 241 242 243 243 243 242
34 39 57 68 72 79 84 83 80 78 73 71 71 73 85 109 124 146 173 192 211 218 219 218 213 209 207 205 205 206 208 209 210 210 210 212 212 212 214 215 215 215 215 214 214 216 218 219 220 222 225 228 229 231 234 237 239 240 241 243 244 244 244
32 31 47 62 70 77 80 81 78 73 67 63 62 62 63 68 74 77 80 83 224 225 223 223 219 214 210 208 207 207 208 209 210 210 211 212 211 211 213 213 213 213 213 213 212 213 216 217 217 218 221 225 227 231 233 236 238 239 240 241 242 243 244
30 27 38 51 62 70 75 77 76 70 63 58 57 57 54 55 58 53 40 25 4 270 232 222 216 213 212 210 209 208 208 208 210 210 211 212 211 210 211 211 210 210 211 211 210 211 213 215 214 215 218 221 225 229 232 233 234 234 234 235 237 239 240
29 29 35 42 52 61 67 69 69 68 63 57 53 51 48 47 47 41 29 20 9 331 276 236 216 212 211 210 209 209 207 207 208 209 211 212 211 211 211 210 209 208 208 208 209 210 211 212 211 212 214 218 224 227 227 226 227 229 229 230 232 234 235
19 22 31 40 50 58 62 64 62 62 61 54 46 41 37 35 35 31 23 19 13 353 309 263 230 217 212 210 209 207 205 204 204 206 208 210 211 212 212 211 209 208 207 206 206 207 208 209 209 208 209 214 218 220 219 218 218 220 222 223 225 228 230
6 12 27 39 49 56 60 61 62 62 60 53 44 38 30 24 24 21 14 12 10 1 342 298 250 227 218 213 209 205 203 202 201 201 201 203 205 207 209 210 210 210 210 209 207 206 206 205 205 205 207 210 209 205 201 203 207 210 212 215 217 217 217
354 360 12 32 49 56 57 59 60 59 53 44 36 31 24 19 15 9 5 4 1 359 354 328 276 244 229 219 209 204 201 198 196 195 192 190 191 192 195 202 206 208 211 213 212 211 210 208 207 209 211 210 208 201 193 193 199 203 204 204 204 204 202
349 352 359 20 45 54 54 53 51 48 44 36 28 22 17 14 9 4 359 357 354 352 350 337 300 260 238 222 209 203 197 189 186 186 184 180 177 174 171 178 194 201 205 209 212 215 215 215 217 218 217 213 210 208 208 209 204 194 187 184 181 181 181
341 341 349 7 31 44 46 44 40 39 40 35 27 21 16 12 8 1 354 350 348 346 343 334 305 259 232 217 205 197 189 182 178 177 175 172 171 167 160 152 155 176 194 204 209 212 214 217 222 223 222 219 214 209 211 213 201 184 176 174 169 167 167
341 343 351 9 28 40 45 44 41 38 39 38 35 32 26 19 10 358 346 339 338 337 334 324 298 244 213 203 197 188 181 177 173 169 166 164 163 164 160 149 134 123 132 177 201 208 211 214 218 219 217 217 215 208 197 189 181 174 169 165 161 160 159
Height
698 701 703 707 709 712 712 714 717 721 724 728 733 738 743 747 752 755 759 762 766 769 772 775 778 781 784 786 789 792 795 798 800 802 804 807 809 811 814 816 818 820 821 822 824 825 827 829 832 833 834 835 836 837 839 840 841 843 844 846 847 848 849
699 700 701 704 706 707 708 710 714 718 721 725 729 734 738 742 747 750 754 758 762 765 769 772 775 778 781 784 787 790 793 795 798 800 803 805 807 809 812 814 816 818 819 821 822 824 826 828 830 831 833 834 835 836 837 838 840 841 842 844 845 846 847
697 698 698 700 699 701 703 706 710 714 718 722 725 729 732 737 741 745 750 754 758 763 766 769 772 775 778 781 785 787 790 793 795 798 800 802 804 806 809 812 814 816 818 819 821 823 824 826 828 830 831 832 833 834 836 837 838 839 841 842 843 844 845
691 691 692 693 693 696 700 703 706 710 714 717 720 724 727 732 737 742 746 750 755 759 762 765 769 772 775 778 782 785 787 790 793 795 797 799 802 804 807 810 812 814 816 817 819 821 823 825 826 828 829 830 832 833 834 835 836 838 839 840 841 842 843
684 685 688 691 693 697 699 700 702 705 709 713 717 721 725 730 735 739 744 747 751 755 758 762 766 769 773 775 778 782 784 788 790 792 795 797 800 802 804 806 809 811 814 815 818 819 821 823 824 826 828 828 830 831 832 833 834 836 837 838 839 840 841
680 682 685 688 690 693 694 695 697 700 705 709 714 719 723 729 733 737 741 745 749 753 756 761 764 767 770 772 776 779 782 785 788 790 793 795 798 800 801 804 806 809 811 814 816 817 819 821 822 824 825 826 828 829 830 831 832 833 835 836 837 838 839
674 677 680 682 684 687 689 690 693 697 702 707 712 718 722 726 731 734 739 742 746 751 754 758 761 764 767 770 773 776 779 782 785 788 791 794 796 798 799 802 803 806 809 811 813 815 817 818 820 821 823 824 825 826 828 829 830 831 832 834 835 835 837
667 670 673 675 677 680 684 686 690 694 700 705 710 715 718 723 727 731 736 739 743 748 751 754 758 761 764 768 771 773 775 779 782 785 788 791 794 795 797 799 801 803 806 808 810 812 814 816 817 819 820 822 823 824 825 827 828 829 830 831 832 833 834
660 663 665 668 671 675 678 681 686 691 697 702 706 710 714 719 723 728 731 736 740 744 747 751 754 758 762 765 768 770 773 776 779 782 785 788 790 792 794 796 798 801 803 805 807 809 811 813 815 817 818 819 821 822 823 825 826 827 828 829 830 831 832
656 659 661 664 667 671 675 679 684 689 694 698 702 706 711 715 719 724 728 732 736 739 743 747 751 756 759 762 765 768 771 774 776 779 782 784 787 789 792 794 796 798 800 802 805 807 809 811 813 815 816 817 819 820 821 822 823 824 825 826 827 828 829
654 657 659 662 666 670 675 680 684 687 690 693 697 702 706 711 715 719 724 728 732 736 740 744 749 753 756 759 762 766 768 771 774 776 779 781 784 786 789 792 794 796 798 800 802 804 806 808 810 812 813 814 816 817 818 819 820 822 823 824 825 826 827
652 655 658 661 665 669 673 677 680 683 686 689 693 697 702 707 711 716 720 724 728 732 736 741 745 749 752 756 759 762 765 768 771 773 776 778 781 784 786 789 791 793 795 797 799 801 803 805 807 809 810 811 813 814 815 816 818 819 820 821 823 824 825
647 651 655 658 662 667 670 674 677 680 683 686 689 693 698 702 707 712 716 720 724 728 733 737 742 745 749 752 756 759 761 764 767 769 772 775 778 781 784 786 788 790 792 794 796 798 800 802 804 805 807 808 810 811 812 814 815 817 818 819 820 821 822
645 648 653 657 661 665 668 671 674 677 680 683 686 691 695 700 704 708 712 716 721 725 729 734 738 742 746 749 752 755 757 759 763 766 769 772 775 778 780 783 785 787 789 791 793 795 796 798 800 802 804 805 807 808 810 812 813 814 815 816 817 818 819
646 648 652 656 659 662 665 668 671 673 676 679 684 688 692 697 701 705 709 713 717 722 726 730 734 738 742 746 748 751 753 757 760 763 767 770 772 775 777 779 782 784 786 788 789 791 793 795 797 799 801 802 804 806 808 809 810 810 811 812 813 815 816
644 647 650 653 655 658 660 663 666 669 673 676 681 685 689 693 696 700 705 709 713 718 722 727 731 735 739 742 744 748 752 755 759 761 764 767 768 771 773 776 779 781 783 784 785 787 789 792 794 796 797 799 801 803 804 806 806 806 807 808 810 811 813
642 645 647 649 651 654 657 660 664 668 672 674 677 680 684 688 692 697 702 706 710 715 719 724 728 731 735 738 741 746 749 752 755 758 761 763 765 767 770 773 775 777 779 781 782 784 786 788 790 792 794 795 797 799 800 801 801 802 803 805 806 808 810
640 642 645 646 648 651 655 659 663 667 669 671 674 678 681 685 690 694 698 702 707 712 717 721 724 728 731 734 738 742 745 748 751 754 757 759 761 764 766 770 772 774 776 777 779 781 783 784 786 788 790 792 793 795 796 796 796 798 800 801 803 805 807
636 638 640 643 645 649 652 655 658 660 663 666 670 674 677 682 686 689 693 699 705 709 714 717 721 724 727 730 734 737 740 744 747 750 753 755 758 761 763 766 768 770 772 774 776 779 780 781 782 784 786 788 790 791 792 792 793 795 796 798 799 802 804
632 633 636 639 642 645 648 650 653 656 660 663 666 670 675 680 684 688 693 699 703 707 711 714 717 721 724 727 730 733 736 740 743 746 749 751 754 757 760 762 763 766 769 772 774 775 776 777 779 780 782 784 785 787 788 788 789 791 793 794 796 799 801
630 631 634 637 640 643 646 648 652 655 658 662 666 670 675 679 684 689 694 697 701 704 707 710 713 716 719 723 726 729 732 736 739 742 745 748 751 753 755 757 759 762 765 767 769 770 771 773 775 776 778 780 782 783 784 784 785 788 790 791 793 796 799
629 629 631 633 636 639 642 645 648 651 655 660 665 669 673 677 682 687 691 695 698 701 704 707 710 713 715 719 722 725 728 731 735 738 740 743 746 749 751 753 754 757 760 763 765 766 768 769 770 772 774 776 778 780 780 780 782 784 786 788 791 794 796
627 629 629 630 632 635 638 642 645 649 654 658 662 666 670 675 680 684 689 693 696 699 702 704 707 709 712 715 718 721 724 727 730 733 736 739 742 744 746 748 750 753 756 758 760 762 763 764 766 768 770 772 774 776 775 775 778 781 783 785 789 791 793
628 629 631 632 633 637 640 644 648 652 656 659 662 665 669 673 678 682 686 690 693 696 699 701 703 706 708 711 714 717 720 723 726 728 731 734 737 739 741 743 746 748 751 753 755 756 758 760 762 764 767 768 770 771 771 772 775 777 779 781 785 787 788
631 631 633 634 635 639 642 646 650 654 658 661 664 667 670 673 677 680 684 687 690 693 695 696 699 702 705 708 711 713 716 719 721 724 727 729 732 734 736 739 741 743 746 748 749 751 753 756 758 760 762 764 765 767 768 769 771 773 775 777 780 782 783
636 635 636 637 639 641 643 647 651 655 660 663 665 667 669 672 675 678 681 684 687 689 690 692 695 698 701 704 707 709 712 715 717 720 722 725 727 729 732 734 736 739 742 743 745 748 750 752 754 756 757 760 762 763 764 765 766 769 771 773 776 777 779
640 638 639 641 642 644 646 650 653 657 661 663 664 665 667 670 673 676 679 682 685 685 686 688 692 696 698 700 703 706 708 710 713 715 718 720 722 725 727 730 732 735 737 739 742 744 746 748 750 752 754 756 758 760 760 761 762 764 766 769 771 773 775
646 644 643 644 646 647 649 653 656 659 661 663 664 665 667 669 672 675 678 680 682 682 684 688 691 693 694 697 699 702 704 706 709 711 714 717 719 722 724 726 729 731 733 736 738 740 742 745 747 749 751 753 755 756 756 757 758 760 762 764 766 768 770
653 652 649 648 649 651 652 654 657 660 662 663 664 665 667 670 673 676 678 680 681 683 685 687 688 690 692 694 696 698 700 703 705 708 711 713 716 718 720 723 725 728 730 732 735 737 739 741 744 746 748 749 751 752 752 753 755 757 759 760 762 764 766
657 657 654 653 653 654 654 655 658 659 661 662 663 665 668 670 673 676 678 680 681 682 683 685 687 689 690 691 693 695 697 700 702 705 707 709 712 715 717 719 722 724 727 729 731 734 736 738 740 742 744 746 747 748 749 750 752 753 755 757 759 761 762
660 660 658 657 656 656 655 656 658 659 661 663 665 667 670 672 673 675 677 678 679 680 681 683 684 685 687 688 690 693 695 697 700 702 704 706 708 711 713 716 719 721 723 726 728 730 732 734 736 738 740 742 743 744 745 747 748 750 752 753 755 757 758
663 662 661 660 659 658 658 658 659 661 663 666 669 670 672 673 674 675 677 677 678 678 679 680 681 682 684 685 687 689 692 694 697 699 701 703 705 707 709 712 714 717 719 721 724 726 728 730 733 735 737 739 740 741 743 744 745 747 748 750 752 754 755
667 665 664 663 663 662 662 662 663 664 666 669 670 672 673 674 674 676 677 677 677 677 678 678 679 680 681 682 684 687 689 691 693 696 698 701 703 705 707 709 711 713 715 717 720 722 725 727 730 732 734 736 737 739 740 741 743 744 746 748 749 751 752
672 669 667 666 665 665 665 666 667 668 670 671 672 673 674 674 675 676 676 677 678 678 677 678 678 679 680 681 682 684 685 687 690 693 695 698 701 703 705 707 709 711 713 714 717 719 722 724 726 728 730 732 734 736 738 739 740 742 743 745 746 748 749
675 673 671 669 668 668 668 668 669 670 671 672 672 672 673 673 674 675 675 676 677 677 678 678 678 678 679 680 681 682 683 685 688 690 692 695 698 701 704 706 708 709 711 713 715 717 719 721 722 724 726 728 730 732 734 736 738 739 741 743 744 746 747
678 675 673 672 670 670 670 670 670 671 671 671 671 671 671 672 673 674 675 676 676 677 677 677 677 677 678 680 681 682 683 685 687 688 690 693 695 698 701 704 706 708 710 712 714 715 717 719 720 722 724 726 727 729 731 733 735 737 739 741 743 745 746
682 679 676 673 671 670 670 670 670 671 672 673 673 673 674 675 675 676 676 676 676 677 677 677 677 677 678 679 680 681 683 684 685 687 689 692 694 696 699 702 705 707 709 710 712 714 716 718 719 721 722 724 725 727 730 732 734 736 738 740 742 744 745
687 684 681 678 675 673 673 673 674 675 676 677 677 677 677 677 677 677 677 677 677 677 677 677 677 677 678 678 680 681 682 683 685 686 689 691 694 696 698 701 704 706 709 710 711 713 715 716 718 720 721 722 724 725 728 731 733 735 737 739 742 744 745